Weather History for Roswell, NM

Change the Weather History Date:

Monday, August 26, 2013

  Actual Average Record
Temperature  
Mean Temperature 81 °F 78 °F  
Max Temperature 93 °F 91 °F 107 °F (2002)
Min Temperature 69 °F 65 °F 49 °F (1900)
Degree Days  
Heating Degree Days 0 0  
Month to date heating degree days 0 0  
Since 1 June heating degree days 0 1  
Since 1 July heating degree days 0 0  
Cooling Degree Days 16 13  
Month to date cooling degree days 442 366  
Year to date cooling degree days 1782 1464  
Since 1 June cooling degree days 1459 1239  
Growing Degree Days 31 (Base 50)    
Moisture  
Dew Point 56 °F    
Average Humidity 46    
Maximum Humidity 66    
Minimum Humidity 26    
Precipitation  
Precipitation 0.00 in 0.06 in 0.97 in (1972)
Month to date precipitation 0.76 1.68  
Year to date precipitation 4.60 8.64  
Sea Level Pressure  
Sea Level Pressure 29.99 in    
Wind  
Wind Speed 6 mph (SSE)    
Max Wind Speed 17 mph    
Max Gust Speed 24 mph    
Visibility 10 miles    
Events      
T = Trace of Precipitation, MM = Missing Value Source: NWS Daily Summary

Daily Weather History Graph

Daily Weather History Graph

Search for Another Location

Airport:

Trip Planner

Search our weather history database for the weather conditions in past years. The results will help you decide how hot, cold, wet, or windy it might be!

Date:

Astronomy

Aug. 26, 2013 Rise Set
Actual Time 6:28 AM MDT 7:30 PM MDT
Civil Twilight 6:02 AM MDT 7:56 PM MDT
Nautical Twilight 5:32 AM MDT 8:26 PM MDT
Astronomical Twilight 5:01 AM MDT 8:57 PM MDT
Moon 11:04 PM MDT (8/26) 12:11 PM MDT (8/26)
Length of Visible Light 13h 53m
Length of Day
13h 02m
Waning Gibbous, 66% of the Moon is Illuminated
Aug 26
Waning Gibbous
Aug 28
Last Quarter
Sep 5
New
Sep 12
First Quarter
Sep 19
Full

Hourly Weather History & Observations

Time (MDT) Temp. Heat Index Dew Point Humidity Pressure Visibility Wind Dir Wind Speed Gust Speed Precip Events Conditions
12:51 AM 75.9 °F - 57.0 °F 52% 30.00 in 10.0 mi SSE 6.9 mph - N/A   Clear
1:51 AM 71.1 °F - 55.9 °F 59% 30.00 in 10.0 mi South 4.6 mph - N/A   Clear
2:51 AM 72.0 °F - 55.9 °F 57% 30.00 in 10.0 mi Calm Calm - N/A   Clear
3:51 AM 72.0 °F - 55.9 °F 57% 29.99 in 10.0 mi Calm Calm - N/A   Clear
4:51 AM 72.0 °F - 55.9 °F 57% 30.00 in 10.0 mi Calm Calm - N/A   Clear
5:51 AM 69.1 °F - 57.0 °F 65% 30.02 in 10.0 mi Calm Calm - N/A   Clear
6:51 AM 69.1 °F - 55.9 °F 63% 30.04 in 10.0 mi Calm Calm - N/A   Clear
7:51 AM 73.0 °F - 57.0 °F 57% 30.05 in 10.0 mi ESE 3.5 mph - N/A   Clear
8:51 AM 77.0 °F - 57.9 °F 52% 30.06 in 10.0 mi SSE 9.2 mph - N/A   Clear
9:51 AM 80.1 °F 80.6 °F 57.9 °F 47% 30.05 in 10.0 mi SSE 9.2 mph - N/A   Clear
10:51 AM 82.9 °F 82.6 °F 57.9 °F 42% 30.05 in 10.0 mi South 10.4 mph - N/A   Clear
11:51 AM 84.9 °F 84.4 °F 59.0 °F 41% 30.03 in 10.0 mi South 8.1 mph - N/A   Clear
12:51 PM 87.1 °F 86.1 °F 57.9 °F 37% 30.01 in 10.0 mi SE 9.2 mph 18.4 mph N/A   Clear
1:51 PM 90.0 °F 88.6 °F 57.0 °F 33% 29.99 in 10.0 mi ESE 8.1 mph 18.4 mph N/A   Partly Cloudy
2:51 PM 91.0 °F 88.7 °F 54.0 °F 28% 29.96 in 10.0 mi SSE 10.4 mph 17.3 mph N/A   Clear
3:51 PM 91.0 °F 88.9 °F 55.0 °F 29% 29.94 in 10.0 mi SSE 12.7 mph 24.2 mph N/A   Scattered Clouds
4:51 PM 91.9 °F - 52.0 °F 26% 29.93 in 10.0 mi SE 9.2 mph - N/A   Clear
5:51 PM 91.0 °F - 51.1 °F 25% 29.93 in 10.0 mi SE 12.7 mph 18.4 mph N/A   Clear
6:51 PM 89.1 °F - 51.1 °F 27% 29.92 in 10.0 mi SE 12.7 mph - N/A   Clear
7:51 PM 84.9 °F 83.2 °F 53.1 °F 33% 29.93 in 10.0 mi SE 9.2 mph - N/A   Mostly Cloudy
8:51 PM 82.0 °F 81.3 °F 54.0 °F 38% 29.94 in 10.0 mi SE 8.1 mph - N/A   Clear
9:51 PM 79.0 °F - 55.0 °F 44% 29.95 in 10.0 mi SE 6.9 mph - N/A   Clear
10:51 PM 75.9 °F - 55.0 °F 48% 29.96 in 10.0 mi SSE 4.6 mph - N/A   Clear
11:51 PM 75.0 °F - 55.0 °F 50% 29.96 in 10.0 mi SSE 3.5 mph - N/A   Clear